This is the latest recevied weather packets stored in our database for station/object KC8JWT. If no packets are shown the sender has not sent any weather packets the latest 10 day(s).
| Time | Temp. | Humidity | Pressure | Rain* | Wind** | Luminosity | Snow |
|---|---|---|---|---|---|---|---|
| 1777726088 | 8.89° C | 80% | 1017 hPa | 0 mm | - | 340 W/m² | - |
| 1777725785 | 8.89° C | 83% | 1017 hPa | 0 mm | - | 290 W/m² | - |
| 1777725483 | 7.22° C | 88% | 1017.2 hPa | 0 mm | - | 146 W/m² | - |
| 1777725180 | 7.22° C | 95% | 1017.1 hPa | 1.78 mm | - | 128 W/m² | - |
| 1777724876 | 7.22° C | 99% | 1017 hPa | 1.78 mm | - | 119 W/m² | - |
| 1777724573 | 6.67° C | 99% | 1017.1 hPa | 0 mm | - | 95 W/m² | - |
| 1777724271 | 6.11° C | 99% | 1017.3 hPa | 0 mm | - | 138 W/m² | - |
| 1777723969 | 6.67° C | 99% | 1017.1 hPa | 0 mm | - | 125 W/m² | - |
| 1777723665 | 6.67° C | 99% | 1017 hPa | 0 mm | - | 147 W/m² | - |
| 1777723362 | 5.56° C | 99% | 1017 hPa | 0 mm | - | 134 W/m² | - |
| 1777723060 | 5.56° C | 99% | 1017.1 hPa | 0 mm | - | 105 W/m² | - |
| 1777722757 | 5° C | 99% | 1017.2 hPa | 0 mm | - | 107 W/m² | - |
| 1777722452 | 5° C | 99% | 1017.2 hPa | 0 mm | - | 87 W/m² | - |
| 1777722150 | 4.44° C | 99% | 1017.1 hPa | 0 mm | - | 78 W/m² | - |
| 1777721847 | 3.89° C | 99% | 1017.1 hPa | 0 mm | - | 73 W/m² | - |
| 1777721545 | 3.89° C | 99% | 1017 hPa | 0 mm | - | 61 W/m² | - |
| 1777721242 | 3.33° C | 99% | 1016.8 hPa | 0 mm | - | 45 W/m² | - |
| 1777720940 | 3.33° C | 99% | 1017.1 hPa | 0 mm | - | 41 W/m² | - |
| 1777720636 | 3.33° C | 99% | 1016.9 hPa | 0 mm | - | 34 W/m² | - |
| 1777720334 | 3.33° C | 99% | 1016.9 hPa | 0 mm | - | 32 W/m² | - |
| 1777720032 | 3.33° C | 99% | 1016.9 hPa | 0 mm | - | 26 W/m² | - |
| 1777719729 | 3.33° C | 99% | 1017 hPa | 0 mm | - | 23 W/m² | - |
| 1777719427 | 3.89° C | 99% | 1017 hPa | 0 mm | - | 16 W/m² | - |
| 1777719123 | 3.89° C | 99% | 1017 hPa | 0 mm | - | 10 W/m² | - |
| 1777718821 | 3.89° C | 99% | 1017 hPa | 0 mm | - | 8 W/m² | - |
* Rain latest hour (hover to see other rain measurements)
** Current wind speed in m/s (hover to see current wind gust speed)